owner,sensor,date,latitude,longitude,sea_surface_height_above_sea_level,qcFlag 
TCOON,ioos:station:TCOON:009:1,2019-10-01T00:24:00Z,27.8398,-97.0727,2.15,11111222 
TCOON,ioos:station:TCOON:009:1,2019-10-01T01:24:00Z,27.8398,-97.0727,2.115,11111222 
TCOON,ioos:station:TCOON:009:1,2019-10-01T02:24:00Z,27.8398,-97.0727,2.135,11111222 
TCOON,ioos:station:TCOON:009:1,2019-10-01T03:24:00Z,27.8398,-97.0727,2.152,11111222 
TCOON,ioos:station:TCOON:009:1,2019-10-01T04:24:00Z,27.8398,-97.0727,2.088,11111222 
TCOON,ioos:station:TCOON:009:1,2019-10-01T05:24:00Z,27.8398,-97.0727,2.113,11111222 
TCOON,ioos:station:TCOON:009:1,2019-10-01T06:30:00Z,27.8398,-97.0727,2.141,11111222 
TCOON,ioos:station:TCOON:009:1,2019-10-01T07:24:00Z,27.8398,-97.0727,2.14,11111222 
TCOON,ioos:station:TCOON:009:1,2019-10-01T08:24:00Z,27.8398,-97.0727,2.143,11111222 
TCOON,ioos:station:TCOON:009:1,2019-10-01T09:24:00Z,27.8398,-97.0727,2.157,11111222 
TCOON,ioos:station:TCOON:009:1,2019-10-01T10:24:00Z,27.8398,-97.0727,2.167,11111222 
TCOON,ioos:station:TCOON:009:1,2019-10-01T11:24:00Z,27.8398,-97.0727,2.12,11111222 
TCOON,ioos:station:TCOON:009:1,2019-10-01T12:24:00Z,27.8398,-97.0727,2.1,11111222 
TCOON,ioos:station:TCOON:009:1,2019-10-01T13:24:00Z,27.8398,-97.0727,2.024,11111222 
TCOON,ioos:station:TCOON:009:1,2019-10-01T14:24:00Z,27.8398,-97.0727,2.044,11111222 
TCOON,ioos:station:TCOON:009:1,2019-10-01T15:24:00Z,27.8398,-97.0727,1.956,11111222 
TCOON,ioos:station:TCOON:009:1,2019-10-01T16:24:00Z,27.8398,-97.0727,1.949,11111222 
TCOON,ioos:station:TCOON:009:1,2019-10-01T17:24:00Z,27.8398,-97.0727,1.938,11111222 
TCOON,ioos:station:TCOON:009:1,2019-10-01T18:24:00Z,27.8398,-97.0727,1.972,11111222 
TCOON,ioos:station:TCOON:009:1,2019-10-01T19:24:00Z,27.8398,-97.0727,2.009,11111222 
TCOON,ioos:station:TCOON:009:1,2019-10-01T20:24:00Z,27.8398,-97.0727,2.09,11111222 
TCOON,ioos:station:TCOON:009:1,2019-10-01T21:24:00Z,27.8398,-97.0727,2.141,11111222 
TCOON,ioos:station:TCOON:009:1,2019-10-01T22:24:00Z,27.8398,-97.0727,2.167,11111222 
TCOON,ioos:station:TCOON:009:1,2019-10-01T23:24:00Z,27.8398,-97.0727,2.181,11111222 
TCOON,ioos:station:TCOON:009:1,2019-10-02T00:24:00Z,27.8398,-97.0727,2.186,11111222 
TCOON,ioos:station:TCOON:009:1,2019-10-02T01:24:00Z,27.8398,-97.0727,2.191,11111222 
TCOON,ioos:station:TCOON:009:1,2019-10-02T02:24:00Z,27.8398,-97.0727,2.219,11111222 
TCOON,ioos:station:TCOON:009:1,2019-10-02T03:24:00Z,27.8398,-97.0727,2.181,11111222 
TCOON,ioos:station:TCOON:009:1,2019-10-02T04:42:00Z,27.8398,-97.0727,2.244,11111222 
TCOON,ioos:station:TCOON:009:1,2019-10-02T05:24:00Z,27.8398,-97.0727,2.218,11111222 
TCOON,ioos:station:TCOON:009:1,2019-10-02T06:24:00Z,27.8398,-97.0727,2.234,11111222 
TCOON,ioos:station:TCOON:009:1,2019-10-02T07:24:00Z,27.8398,-97.0727,2.231,11111222 
TCOON,ioos:station:TCOON:009:1,2019-10-02T08:24:00Z,27.8398,-97.0727,2.214,11111222 
TCOON,ioos:station:TCOON:009:1,2019-10-02T09:24:00Z,27.8398,-97.0727,2.199,11111222 
TCOON,ioos:station:TCOON:009:1,2019-10-02T10:24:00Z,27.8398,-97.0727,2.188,11111222 
TCOON,ioos:station:TCOON:009:1,2019-10-02T11:24:00Z,27.8398,-97.0727,2.148,11111222 
TCOON,ioos:station:TCOON:009:1,2019-10-02T12:24:00Z,27.8398,-97.0727,2.105,11111222 
TCOON,ioos:station:TCOON:009:1,2019-10-02T13:24:00Z,27.8398,-97.0727,2.027,11111222 
TCOON,ioos:station:TCOON:009:1,2019-10-02T14:24:00Z,27.8398,-97.0727,2.003,11111222 
TCOON,ioos:station:TCOON:009:1,2019-10-02T15:24:00Z,27.8398,-97.0727,1.937,11111222 
TCOON,ioos:station:TCOON:009:1,2019-10-02T16:24:00Z,27.8398,-97.0727,1.923,11111222 
TCOON,ioos:station:TCOON:009:1,2019-10-02T17:24:00Z,27.8398,-97.0727,1.898,11111222 
TCOON,ioos:station:TCOON:009:1,2019-10-02T18:24:00Z,27.8398,-97.0727,1.883,11111222 
TCOON,ioos:station:TCOON:009:1,2019-10-02T19:24:00Z,27.8398,-97.0727,1.939,11111222 
TCOON,ioos:station:TCOON:009:1,2019-10-02T20:24:00Z,27.8398,-97.0727,1.922,11111222 
TCOON,ioos:station:TCOON:009:1,2019-10-02T21:24:00Z,27.8398,-97.0727,2.007,11111222 
TCOON,ioos:station:TCOON:009:1,2019-10-02T22:24:00Z,27.8398,-97.0727,2.081,11111222 
TCOON,ioos:station:TCOON:009:1,2019-10-02T23:24:00Z,27.8398,-97.0727,2.146,11111222 
TCOON,ioos:station:TCOON:009:1,2019-10-03T00:24:00Z,27.8398,-97.0727,2.123,11111222 
TCOON,ioos:station:TCOON:009:1,2019-10-03T01:24:00Z,27.8398,-97.0727,2.152,11111222 
TCOON,ioos:station:TCOON:009:1,2019-10-03T02:24:00Z,27.8398,-97.0727,2.168,11111222 
TCOON,ioos:station:TCOON:009:1,2019-10-03T03:24:00Z,27.8398,-97.0727,2.172,11111222 
TCOON,ioos:station:TCOON:009:1,2019-10-03T04:24:00Z,27.8398,-97.0727,2.192,11111222 
TCOON,ioos:station:TCOON:009:1,2019-10-03T05:24:00Z,27.8398,-97.0727,2.211,11111222 
TCOON,ioos:station:TCOON:009:1,2019-10-03T06:24:00Z,27.8398,-97.0727,2.216,11111222 
TCOON,ioos:station:TCOON:009:1,2019-10-03T07:24:00Z,27.8398,-97.0727,2.201,11111222 
TCOON,ioos:station:TCOON:009:1,2019-10-03T08:24:00Z,27.8398,-97.0727,2.204,11111222 
TCOON,ioos:station:TCOON:009:1,2019-10-03T09:24:00Z,27.8398,-97.0727,2.211,11111222 
TCOON,ioos:station:TCOON:009:1,2019-10-03T10:24:00Z,27.8398,-97.0727,2.206,11111222 
TCOON,ioos:station:TCOON:009:1,2019-10-03T11:24:00Z,27.8398,-97.0727,2.19,11111222 
TCOON,ioos:station:TCOON:009:1,2019-10-03T12:24:00Z,27.8398,-97.0727,2.142,11111222 
TCOON,ioos:station:TCOON:009:1,2019-10-03T13:24:00Z,27.8398,-97.0727,2.1,11111222 
TCOON,ioos:station:TCOON:009:1,2019-10-03T14:24:00Z,27.8398,-97.0727,2.033,11111222 
TCOON,ioos:station:TCOON:009:1,2019-10-03T15:24:00Z,27.8398,-97.0727,1.995,11111222 
TCOON,ioos:station:TCOON:009:1,2019-10-03T16:24:00Z,27.8398,-97.0727,1.944,11111222 
TCOON,ioos:station:TCOON:009:1,2019-10-03T17:24:00Z,27.8398,-97.0727,1.891,11111222 
TCOON,ioos:station:TCOON:009:1,2019-10-03T18:24:00Z,27.8398,-97.0727,1.903,11111222 
TCOON,ioos:station:TCOON:009:1,2019-10-03T19:24:00Z,27.8398,-97.0727,1.905,11111222 
TCOON,ioos:station:TCOON:009:1,2019-10-03T20:24:00Z,27.8398,-97.0727,1.919,11111222 
TCOON,ioos:station:TCOON:009:1,2019-10-03T21:24:00Z,27.8398,-97.0727,1.99,11111222 
TCOON,ioos:station:TCOON:009:1,2019-10-03T22:24:00Z,27.8398,-97.0727,1.995,11111222 
TCOON,ioos:station:TCOON:009:1,2019-10-03T23:24:00Z,27.8398,-97.0727,2.095,11111222 
TCOON,ioos:station:TCOON:009:1,2019-10-04T00:24:00Z,27.8398,-97.0727,2.13,11111222 
TCOON,ioos:station:TCOON:009:1,2019-10-04T01:24:00Z,27.8398,-97.0727,2.137,11111222 
TCOON,ioos:station:TCOON:009:1,2019-10-04T02:24:00Z,27.8398,-97.0727,2.14,11111222 
TCOON,ioos:station:TCOON:009:1,2019-10-04T03:24:00Z,27.8398,-97.0727,2.186,11111222 
TCOON,ioos:station:TCOON:009:1,2019-10-04T04:24:00Z,27.8398,-97.0727,2.177,11111222 
TCOON,ioos:station:TCOON:009:1,2019-10-04T05:24:00Z,27.8398,-97.0727,2.196,11111222 
TCOON,ioos:station:TCOON:009:1,2019-10-04T06:24:00Z,27.8398,-97.0727,2.215,11111222 
TCOON,ioos:station:TCOON:009:1,2019-10-04T07:24:00Z,27.8398,-97.0727,2.219,11111222 
TCOON,ioos:station:TCOON:009:1,2019-10-04T08:24:00Z,27.8398,-97.0727,2.225,11111222 
TCOON,ioos:station:TCOON:009:1,2019-10-04T09:24:00Z,27.8398,-97.0727,2.213,11111222 
TCOON,ioos:station:TCOON:009:1,2019-10-04T10:24:00Z,27.8398,-97.0727,2.212,11111222 
TCOON,ioos:station:TCOON:009:1,2019-10-04T11:24:00Z,27.8398,-97.0727,2.22,11111222 
TCOON,ioos:station:TCOON:009:1,2019-10-04T12:30:00Z,27.8398,-97.0727,2.175,11111222 
TCOON,ioos:station:TCOON:009:1,2019-10-04T13:30:00Z,27.8398,-97.0727,2.156,11111222 
TCOON,ioos:station:TCOON:009:1,2019-10-04T14:30:00Z,27.8398,-97.0727,2.121,11111222 
TCOON,ioos:station:TCOON:009:1,2019-10-04T15:30:00Z,27.8398,-97.0727,2.035,11111222 
TCOON,ioos:station:TCOON:009:1,2019-10-04T16:30:00Z,27.8398,-97.0727,1.992,11111222 
TCOON,ioos:station:TCOON:009:1,2019-10-04T17:42:00Z,27.8398,-97.0727,1.929,11111222 
TCOON,ioos:station:TCOON:009:1,2019-10-04T18:42:00Z,27.8398,-97.0727,1.899,11111222 
TCOON,ioos:station:TCOON:009:1,2019-10-04T19:36:00Z,27.8398,-97.0727,1.88,11111222 
TCOON,ioos:station:TCOON:009:1,2019-10-04T20:36:00Z,27.8398,-97.0727,1.881,11111222 
TCOON,ioos:station:TCOON:009:1,2019-10-04T21:30:00Z,27.8398,-97.0727,1.915,11111222 
TCOON,ioos:station:TCOON:009:1,2019-10-04T22:30:00Z,27.8398,-97.0727,1.966,11111222 
TCOON,ioos:station:TCOON:009:1,2019-10-04T23:24:00Z,27.8398,-97.0727,2.0,11111222 
TCOON,ioos:station:TCOON:009:1,2019-10-05T00:24:00Z,27.8398,-97.0727,2.054,11111222 
TCOON,ioos:station:TCOON:009:1,2019-10-05T01:24:00Z,27.8398,-97.0727,2.079,11111222 
TCOON,ioos:station:TCOON:009:1,2019-10-05T02:24:00Z,27.8398,-97.0727,2.12,11111222 
TCOON,ioos:station:TCOON:009:1,2019-10-05T03:24:00Z,27.8398,-97.0727,2.127,11111222 
TCOON,ioos:station:TCOON:009:1,2019-10-05T04:24:00Z,27.8398,-97.0727,2.137,11111222 
TCOON,ioos:station:TCOON:009:1,2019-10-05T05:24:00Z,27.8398,-97.0727,2.146,11111222 
TCOON,ioos:station:TCOON:009:1,2019-10-05T06:24:00Z,27.8398,-97.0727,2.177,11111222 
TCOON,ioos:station:TCOON:009:1,2019-10-05T07:24:00Z,27.8398,-97.0727,2.183,11111222 
TCOON,ioos:station:TCOON:009:1,2019-10-05T08:24:00Z,27.8398,-97.0727,2.179,11111222 
TCOON,ioos:station:TCOON:009:1,2019-10-05T09:24:00Z,27.8398,-97.0727,2.152,11111222 
TCOON,ioos:station:TCOON:009:1,2019-10-05T10:24:00Z,27.8398,-97.0727,2.167,11111222 
TCOON,ioos:station:TCOON:009:1,2019-10-05T11:24:00Z,27.8398,-97.0727,2.15,11111222 
TCOON,ioos:station:TCOON:009:1,2019-10-05T12:24:00Z,27.8398,-97.0727,2.128,11111222 
TCOON,ioos:station:TCOON:009:1,2019-10-05T13:24:00Z,27.8398,-97.0727,2.111,11111222 
TCOON,ioos:station:TCOON:009:1,2019-10-05T14:24:00Z,27.8398,-97.0727,2.043,11111222 
TCOON,ioos:station:TCOON:009:1,2019-10-05T15:24:00Z,27.8398,-97.0727,2.028,11111222 
TCOON,ioos:station:TCOON:009:1,2019-10-05T16:24:00Z,27.8398,-97.0727,1.973,11111222 
TCOON,ioos:station:TCOON:009:1,2019-10-05T17:24:00Z,27.8398,-97.0727,1.925,11111222 
TCOON,ioos:station:TCOON:009:1,2019-10-05T18:24:00Z,27.8398,-97.0727,1.837,11111222 
TCOON,ioos:station:TCOON:009:1,2019-10-05T19:24:00Z,27.8398,-97.0727,1.866,11111222 
TCOON,ioos:station:TCOON:009:1,2019-10-05T20:24:00Z,27.8398,-97.0727,1.84,11111222 
TCOON,ioos:station:TCOON:009:1,2019-10-05T21:24:00Z,27.8398,-97.0727,1.853,11111222 
TCOON,ioos:station:TCOON:009:1,2019-10-05T22:24:00Z,27.8398,-97.0727,1.862,11111222 
TCOON,ioos:station:TCOON:009:1,2019-10-05T23:24:00Z,27.8398,-97.0727,1.899,11111222 
TCOON,ioos:station:TCOON:009:1,2019-10-06T00:24:00Z,27.8398,-97.0727,1.946,11111222 
TCOON,ioos:station:TCOON:009:1,2019-10-06T01:24:00Z,27.8398,-97.0727,2.035,11111222 
TCOON,ioos:station:TCOON:009:1,2019-10-06T02:24:00Z,27.8398,-97.0727,2.032,11111222 
TCOON,ioos:station:TCOON:009:1,2019-10-06T03:24:00Z,27.8398,-97.0727,2.075,11111222 
TCOON,ioos:station:TCOON:009:1,2019-10-06T04:24:00Z,27.8398,-97.0727,2.1,11111222 
TCOON,ioos:station:TCOON:009:1,2019-10-06T05:24:00Z,27.8398,-97.0727,2.104,11111222 
TCOON,ioos:station:TCOON:009:1,2019-10-06T06:24:00Z,27.8398,-97.0727,2.129,11111222 
TCOON,ioos:station:TCOON:009:1,2019-10-06T07:24:00Z,27.8398,-97.0727,2.138,11111222 
TCOON,ioos:station:TCOON:009:1,2019-10-06T08:24:00Z,27.8398,-97.0727,2.152,11111222 
TCOON,ioos:station:TCOON:009:1,2019-10-06T09:24:00Z,27.8398,-97.0727,2.15,11111222 
TCOON,ioos:station:TCOON:009:1,2019-10-06T10:24:00Z,27.8398,-97.0727,2.155,11111222 
TCOON,ioos:station:TCOON:009:1,2019-10-06T11:24:00Z,27.8398,-97.0727,2.149,11111222 
TCOON,ioos:station:TCOON:009:1,2019-10-06T12:24:00Z,27.8398,-97.0727,2.133,11111222 
TCOON,ioos:station:TCOON:009:1,2019-10-06T13:24:00Z,27.8398,-97.0727,2.114,11111222 
TCOON,ioos:station:TCOON:009:1,2019-10-06T14:24:00Z,27.8398,-97.0727,2.112,11111222 
TCOON,ioos:station:TCOON:009:1,2019-10-06T15:24:00Z,27.8398,-97.0727,2.108,11111222 
TCOON,ioos:station:TCOON:009:1,2019-10-06T16:24:00Z,27.8398,-97.0727,2.03,11111222 
TCOON,ioos:station:TCOON:009:1,2019-10-06T17:24:00Z,27.8398,-97.0727,1.994,11111222 
TCOON,ioos:station:TCOON:009:1,2019-10-06T18:24:00Z,27.8398,-97.0727,1.942,11111222 
TCOON,ioos:station:TCOON:009:1,2019-10-06T19:30:00Z,27.8398,-97.0727,1.917,11111222 
TCOON,ioos:station:TCOON:009:1,2019-10-06T20:24:00Z,27.8398,-97.0727,1.896,11111222 
TCOON,ioos:station:TCOON:009:1,2019-10-06T21:24:00Z,27.8398,-97.0727,1.882,11111222 
TCOON,ioos:station:TCOON:009:1,2019-10-06T22:24:00Z,27.8398,-97.0727,1.887,11111222 
TCOON,ioos:station:TCOON:009:1,2019-10-06T23:24:00Z,27.8398,-97.0727,1.931,11111222 
TCOON,ioos:station:TCOON:009:1,2019-10-07T00:24:00Z,27.8398,-97.0727,1.916,11111222 
TCOON,ioos:station:TCOON:009:1,2019-10-07T01:24:00Z,27.8398,-97.0727,1.978,11111222 
TCOON,ioos:station:TCOON:009:1,2019-10-07T02:24:00Z,27.8398,-97.0727,2.048,11111222 
TCOON,ioos:station:TCOON:009:1,2019-10-07T03:24:00Z,27.8398,-97.0727,2.072,11111222 
TCOON,ioos:station:TCOON:009:1,2019-10-07T04:24:00Z,27.8398,-97.0727,2.107,11111222 
TCOON,ioos:station:TCOON:009:1,2019-10-07T05:24:00Z,27.8398,-97.0727,2.1,11111222 
TCOON,ioos:station:TCOON:009:1,2019-10-07T06:24:00Z,27.8398,-97.0727,2.14,11111222 
TCOON,ioos:station:TCOON:009:1,2019-10-07T07:24:00Z,27.8398,-97.0727,2.146,11111222 
TCOON,ioos:station:TCOON:009:1,2019-10-07T08:24:00Z,27.8398,-97.0727,2.147,11111222 
TCOON,ioos:station:TCOON:009:1,2019-10-07T09:24:00Z,27.8398,-97.0727,2.157,11111222 
TCOON,ioos:station:TCOON:009:1,2019-10-07T10:24:00Z,27.8398,-97.0727,2.153,11111222 
TCOON,ioos:station:TCOON:009:1,2019-10-07T11:24:00Z,27.8398,-97.0727,2.15,11111222 
TCOON,ioos:station:TCOON:009:1,2019-10-07T12:24:00Z,27.8398,-97.0727,2.161,11111222 
TCOON,ioos:station:TCOON:009:1,2019-10-07T14:48:00Z,27.8398,-97.0727,2.09,11111222 
TCOON,ioos:station:TCOON:009:1,2019-10-07T15:30:00Z,27.8398,-97.0727,2.099,11111222 
TCOON,ioos:station:TCOON:009:1,2019-10-07T16:30:00Z,27.8398,-97.0727,2.119,11111222 
TCOON,ioos:station:TCOON:009:1,2019-10-07T17:30:00Z,27.8398,-97.0727,2.065,11111222 
TCOON,ioos:station:TCOON:009:1,2019-10-07T18:30:00Z,27.8398,-97.0727,2.008,11111222 
TCOON,ioos:station:TCOON:009:1,2019-10-07T19:30:00Z,27.8398,-97.0727,1.988,11111222 
TCOON,ioos:station:TCOON:009:1,2019-10-07T20:30:00Z,27.8398,-97.0727,1.945,11111222 
TCOON,ioos:station:TCOON:009:1,2019-10-07T21:24:00Z,27.8398,-97.0727,1.91,11111222 
TCOON,ioos:station:TCOON:009:1,2019-10-07T22:24:00Z,27.8398,-97.0727,1.919,11111222 
TCOON,ioos:station:TCOON:009:1,2019-10-07T23:24:00Z,27.8398,-97.0727,1.918,11111222 
TCOON,ioos:station:TCOON:009:1,2019-10-08T00:24:00Z,27.8398,-97.0727,1.903,11111222 
TCOON,ioos:station:TCOON:009:1,2019-10-08T01:24:00Z,27.8398,-97.0727,1.964,11111222 
TCOON,ioos:station:TCOON:009:1,2019-10-08T02:24:00Z,27.8398,-97.0727,1.995,11111222 
TCOON,ioos:station:TCOON:009:1,2019-10-08T03:24:00Z,27.8398,-97.0727,2.004,11111222 
TCOON,ioos:station:TCOON:009:1,2019-10-08T04:24:00Z,27.8398,-97.0727,2.09,11111222 
TCOON,ioos:station:TCOON:009:1,2019-10-08T05:24:00Z,27.8398,-97.0727,2.108,11111222 
TCOON,ioos:station:TCOON:009:1,2019-10-08T06:24:00Z,27.8398,-97.0727,2.147,11111222 
TCOON,ioos:station:TCOON:009:1,2019-10-08T07:24:00Z,27.8398,-97.0727,2.125,11111222 
TCOON,ioos:station:TCOON:009:1,2019-10-08T08:24:00Z,27.8398,-97.0727,2.13,11111222 
TCOON,ioos:station:TCOON:009:1,2019-10-08T09:24:00Z,27.8398,-97.0727,2.14,11111222 
TCOON,ioos:station:TCOON:009:1,2019-10-08T10:24:00Z,27.8398,-97.0727,2.16,11111222 
TCOON,ioos:station:TCOON:009:1,2019-10-08T11:24:00Z,27.8398,-97.0727,2.195,11111222 
TCOON,ioos:station:TCOON:009:1,2019-10-08T12:24:00Z,27.8398,-97.0727,2.185,11111222 
TCOON,ioos:station:TCOON:009:1,2019-10-08T13:24:00Z,27.8398,-97.0727,2.164,11111222 
TCOON,ioos:station:TCOON:009:1,2019-10-08T14:36:00Z,27.8398,-97.0727,2.18,11111222 
TCOON,ioos:station:TCOON:009:1,2019-10-08T15:36:00Z,27.8398,-97.0727,2.216,11111222 
TCOON,ioos:station:TCOON:009:1,2019-10-08T16:30:00Z,27.8398,-97.0727,2.208,11111222 
TCOON,ioos:station:TCOON:009:1,2019-10-08T17:30:00Z,27.8398,-97.0727,2.163,11111222 
TCOON,ioos:station:TCOON:009:1,2019-10-08T18:48:00Z,27.8398,-97.0727,2.131,11111222 
TCOON,ioos:station:TCOON:009:1,2019-10-08T19:48:00Z,27.8398,-97.0727,2.146,11111222 
TCOON,ioos:station:TCOON:009:1,2019-10-08T20:36:00Z,27.8398,-97.0727,2.097,11111222 
TCOON,ioos:station:TCOON:009:1,2019-10-08T21:30:00Z,27.8398,-97.0727,2.076,11111222 
TCOON,ioos:station:TCOON:009:1,2019-10-08T22:30:00Z,27.8398,-97.0727,2.021,11111222 
TCOON,ioos:station:TCOON:009:1,2019-10-08T23:24:00Z,27.8398,-97.0727,2.01,11111222 
TCOON,ioos:station:TCOON:009:1,2019-10-09T00:24:00Z,27.8398,-97.0727,2.0,11111222 
TCOON,ioos:station:TCOON:009:1,2019-10-09T01:24:00Z,27.8398,-97.0727,1.974,11111222 
TCOON,ioos:station:TCOON:009:1,2019-10-09T02:36:00Z,27.8398,-97.0727,2.081,11111222 
TCOON,ioos:station:TCOON:009:1,2019-10-09T03:24:00Z,27.8398,-97.0727,2.073,11111222 
TCOON,ioos:station:TCOON:009:1,2019-10-09T04:24:00Z,27.8398,-97.0727,2.139,11111222 
TCOON,ioos:station:TCOON:009:1,2019-10-09T05:24:00Z,27.8398,-97.0727,2.16,11111222 
TCOON,ioos:station:TCOON:009:1,2019-10-09T06:24:00Z,27.8398,-97.0727,2.15,11111222 
TCOON,ioos:station:TCOON:009:1,2019-10-09T07:24:00Z,27.8398,-97.0727,2.193,11111222 
TCOON,ioos:station:TCOON:009:1,2019-10-09T08:24:00Z,27.8398,-97.0727,2.169,11111222 
TCOON,ioos:station:TCOON:009:1,2019-10-09T09:24:00Z,27.8398,-97.0727,2.191,11111222 
TCOON,ioos:station:TCOON:009:1,2019-10-09T10:24:00Z,27.8398,-97.0727,2.185,11111222 
TCOON,ioos:station:TCOON:009:1,2019-10-09T11:24:00Z,27.8398,-97.0727,2.187,11111222 
TCOON,ioos:station:TCOON:009:1,2019-10-09T12:30:00Z,27.8398,-97.0727,2.178,11111222 
TCOON,ioos:station:TCOON:009:1,2019-10-09T13:30:00Z,27.8398,-97.0727,2.173,11111222 
TCOON,ioos:station:TCOON:009:1,2019-10-09T14:30:00Z,27.8398,-97.0727,2.153,11111222 
TCOON,ioos:station:TCOON:009:1,2019-10-09T15:30:00Z,27.8398,-97.0727,2.087,11111222 
TCOON,ioos:station:TCOON:009:1,2019-10-09T16:30:00Z,27.8398,-97.0727,2.197,11111222 
TCOON,ioos:station:TCOON:009:1,2019-10-09T17:30:00Z,27.8398,-97.0727,2.141,11111222 
TCOON,ioos:station:TCOON:009:1,2019-10-09T18:30:00Z,27.8398,-97.0727,2.153,11111222 
TCOON,ioos:station:TCOON:009:1,2019-10-09T19:30:00Z,27.8398,-97.0727,2.087,11111222 
TCOON,ioos:station:TCOON:009:1,2019-10-09T20:30:00Z,27.8398,-97.0727,2.066,11111222 
TCOON,ioos:station:TCOON:009:1,2019-10-09T21:30:00Z,27.8398,-97.0727,2.028,11111222 
TCOON,ioos:station:TCOON:009:1,2019-10-09T22:24:00Z,27.8398,-97.0727,2.005,11111222 
TCOON,ioos:station:TCOON:009:1,2019-10-10T01:36:00Z,27.8398,-97.0727,1.925,11111222 
TCOON,ioos:station:TCOON:009:1,2019-10-10T02:24:00Z,27.8398,-97.0727,1.981,11111222 
TCOON,ioos:station:TCOON:009:1,2019-10-10T03:24:00Z,27.8398,-97.0727,2.0,11111222 
TCOON,ioos:station:TCOON:009:1,2019-10-10T04:24:00Z,27.8398,-97.0727,2.058,11111222 
TCOON,ioos:station:TCOON:009:1,2019-10-10T05:36:00Z,27.8398,-97.0727,2.109,11111222 
TCOON,ioos:station:TCOON:009:1,2019-10-10T06:24:00Z,27.8398,-97.0727,2.128,11111222 
TCOON,ioos:station:TCOON:009:1,2019-10-10T07:24:00Z,27.8398,-97.0727,2.136,11111222 
TCOON,ioos:station:TCOON:009:1,2019-10-10T08:24:00Z,27.8398,-97.0727,2.125,11111222 
TCOON,ioos:station:TCOON:009:1,2019-10-10T09:24:00Z,27.8398,-97.0727,2.146,11111222 
TCOON,ioos:station:TCOON:009:1,2019-10-10T10:24:00Z,27.8398,-97.0727,2.135,11111222 
TCOON,ioos:station:TCOON:009:1,2019-10-10T11:24:00Z,27.8398,-97.0727,2.14,11111222 
TCOON,ioos:station:TCOON:009:1,2019-10-10T12:24:00Z,27.8398,-97.0727,2.117,11111222 
TCOON,ioos:station:TCOON:009:1,2019-10-10T13:30:00Z,27.8398,-97.0727,2.109,11111222 
TCOON,ioos:station:TCOON:009:1,2019-10-10T14:30:00Z,27.8398,-97.0727,2.11,11111222 
TCOON,ioos:station:TCOON:009:1,2019-10-10T15:24:00Z,27.8398,-97.0727,2.108,11111222 
TCOON,ioos:station:TCOON:009:1,2019-10-10T16:24:00Z,27.8398,-97.0727,2.122,11111222 
TCOON,ioos:station:TCOON:009:1,2019-10-10T17:30:00Z,27.8398,-97.0727,2.125,11111222 
TCOON,ioos:station:TCOON:009:1,2019-10-10T18:30:00Z,27.8398,-97.0727,2.109,11111222 
TCOON,ioos:station:TCOON:009:1,2019-10-10T19:30:00Z,27.8398,-97.0727,2.112,11111222 
TCOON,ioos:station:TCOON:009:1,2019-10-10T20:30:00Z,27.8398,-97.0727,2.098,11111222 
TCOON,ioos:station:TCOON:009:1,2019-10-10T21:30:00Z,27.8398,-97.0727,2.064,11111222 
TCOON,ioos:station:TCOON:009:1,2019-10-10T22:30:00Z,27.8398,-97.0727,2.019,11111222 
TCOON,ioos:station:TCOON:009:1,2019-10-10T23:24:00Z,27.8398,-97.0727,1.975,11111222 
TCOON,ioos:station:TCOON:009:1,2019-10-11T00:24:00Z,27.8398,-97.0727,1.966,11111222 
TCOON,ioos:station:TCOON:009:1,2019-10-11T01:24:00Z,27.8398,-97.0727,1.94,11111222 
TCOON,ioos:station:TCOON:009:1,2019-10-11T02:24:00Z,27.8398,-97.0727,1.952,11111222 
TCOON,ioos:station:TCOON:009:1,2019-10-11T03:24:00Z,27.8398,-97.0727,1.969,11111222 
TCOON,ioos:station:TCOON:009:1,2019-10-11T04:30:00Z,27.8398,-97.0727,2.037,11111222 
TCOON,ioos:station:TCOON:009:1,2019-10-11T05:24:00Z,27.8398,-97.0727,2.069,11111222 
TCOON,ioos:station:TCOON:009:1,2019-10-11T06:24:00Z,27.8398,-97.0727,2.081,11111222 
TCOON,ioos:station:TCOON:009:1,2019-10-11T07:24:00Z,27.8398,-97.0727,2.083,11111222 
TCOON,ioos:station:TCOON:009:1,2019-10-11T08:24:00Z,27.8398,-97.0727,2.103,11111222 
TCOON,ioos:station:TCOON:009:1,2019-10-11T09:24:00Z,27.8398,-97.0727,2.082,11111222 
TCOON,ioos:station:TCOON:009:1,2019-10-11T10:30:00Z,27.8398,-97.0727,2.066,11111222 
TCOON,ioos:station:TCOON:009:1,2019-10-11T11:30:00Z,27.8398,-97.0727,2.03,11111222 
TCOON,ioos:station:TCOON:009:1,2019-10-11T12:30:00Z,27.8398,-97.0727,2.05,11111222 
TCOON,ioos:station:TCOON:009:1,2019-10-11T13:30:00Z,27.8398,-97.0727,2.057,11111222 
TCOON,ioos:station:TCOON:009:1,2019-10-11T14:48:00Z,27.8398,-97.0727,2.032,11111222 
TCOON,ioos:station:TCOON:009:1,2019-10-11T15:48:00Z,27.8398,-97.0727,2.03,11111222 
TCOON,ioos:station:TCOON:009:1,2019-10-11T16:48:00Z,27.8398,-97.0727,2.024,11111222 
TCOON,ioos:station:TCOON:009:1,2019-10-11T17:48:00Z,27.8398,-97.0727,1.985,11111222 
TCOON,ioos:station:TCOON:009:1,2019-10-11T18:36:00Z,27.8398,-97.0727,2.01,11111222 
TCOON,ioos:station:TCOON:009:1,2019-10-11T19:30:00Z,27.8398,-97.0727,2.027,11111222 
TCOON,ioos:station:TCOON:009:1,2019-10-11T20:30:00Z,27.8398,-97.0727,2.023,11111222 
TCOON,ioos:station:TCOON:009:1,2019-10-11T21:30:00Z,27.8398,-97.0727,1.99,11111222 
TCOON,ioos:station:TCOON:009:1,2019-10-11T22:30:00Z,27.8398,-97.0727,1.985,11111222 
TCOON,ioos:station:TCOON:009:1,2019-10-11T23:24:00Z,27.8398,-97.0727,1.938,11111222 
TCOON,ioos:station:TCOON:009:1,2019-10-12T00:24:00Z,27.8398,-97.0727,1.899,11111222 
TCOON,ioos:station:TCOON:009:1,2019-10-12T01:24:00Z,27.8398,-97.0727,1.919,11111222 
TCOON,ioos:station:TCOON:009:1,2019-10-12T02:24:00Z,27.8398,-97.0727,1.917,11111222 
TCOON,ioos:station:TCOON:009:1,2019-10-12T03:24:00Z,27.8398,-97.0727,1.938,11111222 
TCOON,ioos:station:TCOON:009:1,2019-10-12T04:24:00Z,27.8398,-97.0727,1.973,11111222 
TCOON,ioos:station:TCOON:009:1,2019-10-12T05:36:00Z,27.8398,-97.0727,2.024,11111222 
TCOON,ioos:station:TCOON:009:1,2019-10-12T06:24:00Z,27.8398,-97.0727,2.078,11111222 
TCOON,ioos:station:TCOON:009:1,2019-10-12T07:24:00Z,27.8398,-97.0727,2.058,11111222 
TCOON,ioos:station:TCOON:009:1,2019-10-12T08:24:00Z,27.8398,-97.0727,2.09,11111222 
TCOON,ioos:station:TCOON:009:1,2019-10-12T09:24:00Z,27.8398,-97.0727,2.042,11111222 
TCOON,ioos:station:TCOON:009:1,2019-10-12T10:24:00Z,27.8398,-97.0727,2.082,11111222 
TCOON,ioos:station:TCOON:009:1,2019-10-12T11:24:00Z,27.8398,-97.0727,2.047,11111222 
TCOON,ioos:station:TCOON:009:1,2019-10-12T12:24:00Z,27.8398,-97.0727,2.048,11111222 
TCOON,ioos:station:TCOON:009:1,2019-10-12T13:30:00Z,27.8398,-97.0727,2.068,11111222 
TCOON,ioos:station:TCOON:009:1,2019-10-12T14:30:00Z,27.8398,-97.0727,2.055,11111222 
TCOON,ioos:station:TCOON:009:1,2019-10-12T15:30:00Z,27.8398,-97.0727,2.122,11111222 
TCOON,ioos:station:TCOON:009:1,2019-10-12T16:30:00Z,27.8398,-97.0727,2.008,11111222 
TCOON,ioos:station:TCOON:009:1,2019-10-12T17:30:00Z,27.8398,-97.0727,2.109,11111222 
TCOON,ioos:station:TCOON:009:1,2019-10-12T18:30:00Z,27.8398,-97.0727,2.133,11111222 
TCOON,ioos:station:TCOON:009:1,2019-10-12T19:30:00Z,27.8398,-97.0727,2.143,11111222 
TCOON,ioos:station:TCOON:009:1,2019-10-12T20:30:00Z,27.8398,-97.0727,2.137,11111222 